OBJECT A

Satellite information

Favourite Embed

Satellite Type and Status

UNKNOWNIN ORBIT

Key statistics

Satellite OBJECT A at a glance.

Uptime

471

Days in orbit

Revolutions

≈ 15.3

Per day

Orbit

SSO

Sun Synchronous Orbit

Inclination

97.7

Latest

Satellite identification and parameters

Extended collection of information and parameters for OBJECT A.

Object identification

Identified? True

Debris? False

Object name: OBJECT A

International designator: 2024-153A

Object number (NORAD): 60745

Object ID (CCSDS): 60745

Country: PEOPLES REPUBLIC OF CHINA (PRC)

Current information (Y/N): Y

RCS size: MEDIUM

Orbital parameters

Period: 94.044 minutes

Inclination: 97.6528 deg

SMA: 6850.37 km

Apoapsis: 479.598 km

Periapsis: 464.873 km

RAAN: 114.7488 deg

Eccentricy: 0.00107478

Argument of periapsis: 91.9112 deg

Mean anomaly: 268.336 deg

Mean motion: 15.31199141 rev/day

Mean motion (dot): 0.00048959 rev/day2

B* drag term: 0.0016158616 1/REarth

Two-line elements (TLE)

Creation date: Dec. 12, 2025, 10:14 a.m.

Reference frame: TEME

Reference center: EARTH

Epoch: Dec. 12, 2025, 7:58 a.m. UTC

TLE line 0: 0 OBJECT A

TLE line 1: 1 60745U 24153A 25346.33221815 .00048959 00000-0 16159-2 0 9991

TLE line 2: 2 60745 97.6528 114.7488 0010748 91.9112 268.3360 15.31199141 71378

Live tracking on map

Real-time ground track for satellite OBJECT A.

In-orbit conjunctions

There are no conjunctions computed for OBJECT A, at the moment. Check back to stay up to date, as we update our databases every day.

Go to all conjunctions

Associated space launch

Carried 6 satellites to sun synchronous orbit: * Yunyao-1 15 to 17 * Jitianxing A-03 * Suxing 1-01 * Tianfu Gaofen 2

OBJECT A was lifted into orbit during the mission ‘Ceres-1S | 6 satellites’, on board a Ceres-1S space rocket.

The launch took place on Aug. 29, 2024, 5:22 a.m. from Haiyang Spaceport.

For more information about the launch, click the button.

Launch to space Ceres-1S | 6 satellites
Ceres-1S | 6 satellites

Agency: N/A

Status: Launch Successful

Launch date: Aug. 29, 2024, 5:22 a.m. UTC

Rocket: Ceres-1S

Launch pad: Haiyang Spaceport

Location: Haiyang Oriental Spaceport

...

Latest news about this satellite

News about space launch
Polaris Dawn on hold; SpaceX booster fails on landing

Another busy week of spaceflight activities contained a landing failure of a Falcon 9 booster for the first time in over three years. Looking forward, Falcon 9 could launch up to five launches this week, including the Polaris Dawn mission, whose private c...

News about space launch
Galactic Energy launches six satellites with third sea launch

HELSINKI — China’s Galactic Energy conducted its third Ceres-1 solid rocket sea launch Thursday, successfully sending six satellites into orbit. The Ceres-1 lifted off from a transport erector launcher on […]

News about space launch
Launch Roundup: Falcon Heavy returns with GOES-U, Firefly Alpha launch attempt

Following a week in which Tropical Storm Alberto brought high seas, wind, and rain-related delays to the launch schedule in Florida, SpaceX managed to get back on track this week with launches from all three of the active Falcon launch pads, including a F...


Newsletter sign-up

Weekly statistics, charts and insights to help you stay on top of the space industry.